[Iaude] MPEC T56: 2016 TL10 [a=0.91,e=0.17,i=6.7,H=27.3]

mpec at si.edu mpec at si.edu
Thu Oct 6 14:38:01 EDT 2016


M.P.E.C. 2016-T56                                Issued 2016 Oct. 6, 18:34 UT
 
     The Minor Planet Electronic Circulars contain information on unusual
         minor planets and routine data on comets.  They are published
    on behalf of Division F of the International Astronomical Union by the
          Minor Planet Center, Smithsonian Astrophysical Observatory,
                          Cambridge, MA 02138, U.S.A.

             Prepared using the Tamkin Foundation Computer Network

                              MPC at CFA.HARVARD.EDU
            URL http://www.minorplanetcenter.net/    ISSN 1523-6714


                                   2016 TL10
 
Observations:
     K16T10L* C2016 10 04.24548 23 45 22.11 +00 23 11.7          21.1 VqET056G96
     K16T10L  C2016 10 04.25172 23 45 20.91 +00 21 49.8          20.4 VqET056G96
     K16T10L  C2016 10 04.25797 23 45 19.73 +00 20 31.4          21.0 VqET056G96
     K16T10L  C2016 10 04.26423 23 45 18.56 +00 19 11.4          20.3 VqET056G96
     K16T10L  C2016 10 04.30083 23 45 11.70 +00 11 19.1          20.3 VqET056G96
     K16T10L  C2016 10 04.30749 23 45 10.55 +00 09 55.0          20.4 VqET056G96
     K16T10L  C2016 10 04.32070 23 45 08.10 +00 07 06.0          20.2 VqET056G96
     K16T10L  C2016 10 04.35558 23 45 02.01 -00 00 17.8          22.0 VqET056G96
     K16T10L  C2016 10 04.35582 23 45 02.01 -00 00 20.7          20.9 VqET056G96
     K16T10L  C2016 10 04.35605 23 45 01.95 -00 00 23.2          20.8 VqET056G96
     K16T10L  C2016 10 04.35629 23 45 01.94 -00 00 26.6          20.9 VqET056G96
     K16T10L  C2016 10 05.14978 23 44 05.86 -02 39 36.9          21.6 RoET056926
     K16T10L  C2016 10 05.15360 23 44 05.27 -02 40 20.0          21.1 RoET056926
     K16T10L  C2016 10 05.15743 23 44 04.67 -02 41 04.1          20.9 RoET056926
     K16T10L  C2016 10 05.16785623 44 02.14 -02 43 12.1          21.1 VtET056H01
     K16T10L  C2016 10 05.17627523 44 00.82 -02 44 47.9          20.9 VtET056H01
     K16T10L  C2016 10 05.18559023 43 59.33 -02 46 34.2          21.2 VtET056H01
     K16T10L  C2016 10 05.18965123 43 58.66 -02 47 20.2          21.3 VtET056H01
     K16T10L  C2016 10 05.19518 23 43 58.77 -02 48 14.8          19.2 RoET056291
     K16T10L  C2016 10 05.19753 23 43 58.38 -02 48 41.3          18.8 RoET056291
     K16T10L  C2016 10 05.19984 23 43 58.03 -02 49 07.7          19.1 RoET056291
     K16T10L  C2016 10 06.27380 23 42 28.39 -05 58 00.4          20.7 VqET056G96
     K16T10L  C2016 10 06.27453 23 42 28.26 -05 58 08.2          21.5 VqET056G96
     K16T10L  C2016 10 06.27624 23 42 27.95 -05 58 24.1          21.8 VqET056G96
     K16T10L  C2016 10 06.27697 23 42 27.87 -05 58 31.6          21.3 VqET056G96
     K16T10L  C2016 10 06.29410 23 42 25.36 -06 01 15.9          21.6 RoET056926
     K16T10L  C2016 10 06.29897 23 42 24.66 -06 02 03.5          21.6 RoET056926
     K16T10L  C2016 10 06.30382 23 42 23.96 -06 02 50.7          21.4 RoET056926
 
Observer details:
291 LPL/Spacewatch II.  Observer A. F. Tubbiolo.  1.8-m f/2.7 reflector + CCD.
926 Tenagra II Observatory.  Observers M. Schwartz, P. R. Holvorcem.  Measurer
    M. Schwartz.  0.81-m f/7 Ritchey-Chretien + CCD.
G96 Mt. Lemmon Survey.  Observers A. D. Grauer, R. G. Matheny.  Measurers
    E. J. Christensen, D. C. Fuls, A. R. Gibbs, A. D. Grauer, J. A. Johnson,
    R. A. Kowalski, S. M. Larson, G. J. Leonard, R. G. Matheny, R. L. Seaman,
    F. C. Shelly.  1.5-m reflector + 10K CCD.
H01 Magdalena Ridge Observatory, Socorro.  Observers W. H. Ryan, E. V. Ryan.
    Measurer W. H. Ryan.  2.4-m f/8.9 reflector + CCD.
 
Orbital elements:
2016 TL10                                                Earth MOID = 0.0230 AU
Epoch 2016 July 31.0 TT = JDT 2457600.5                 MPC
M  62.46783              (2000.0)            P               Q
n   1.13058329     Peri.   31.58117     -0.73249971     +0.68037747
a   0.9125731      Node   191.38190     -0.64638536     -0.70572466
e   0.1689287      Incl.    6.70340     -0.21361212     -0.19758341
P   0.87           H   27.3           G   0.15           U   7
Residuals in seconds of arc
161004 G96  0.4+  0.7+    161004 G96  0.5+  0.1+    161005 291  0.1-  0.6+
161004 G96  0.0   0.8-    161005 926  0.3+  0.8-    161006 G96  0.5+  0.2+
161004 G96  0.1-  1.2+    161005 926  0.2+  0.2-    161006 G96  0.2+  0.5-
161004 G96 (0.0   1.8+)   161005 926  0.0   0.5-    161006 G96  0.7-  0.3+
161004 G96  0.7-  1.1-    161005 H01  0.2+  0.7-    161006 G96  0.3-  0.0
161004 G96  0.3+  0.0     161005 H01  0.4+  0.5-    161006 926  0.0   0.1+
161004 G96  0.5-  0.3-    161005 H01  0.5+  0.8-    161006 926  0.2+  0.1-
161004 G96  0.2-  0.1-    161005 H01  0.3+  0.6-    161006 926  0.3+  0.1-
161004 G96  0.4+  0.0     161005 291  0.4-  0.6+
161004 G96  0.1+  0.4+    161005 291  0.5-  0.8+

Ephemeris:
2016 TL10                a,e,i = 0.91, 0.17, 7                   q = 0.7584
Date    TT    R. A. (2000) Decl.     Delta      r     Elong.  Phase     V
2016 09 06    10 45 30.7 +63 22 13   0.06655 0.9733    57.0   119.7    26.2
...
2016 09 21    02 08 17.0 +77 46 46   0.02963 1.0092    99.4    78.9    22.4
...
2016 09 29    23 59 25.0 +26 55 27   0.02587 1.0252   154.9    24.5    20.6
...
2016 10 05    23 44 10.4 -02 08 32   0.03701 1.0356   163.6    15.9    21.1
2016 10 06    23 42 49.8 -05 10 03   0.03954 1.0372   160.8    18.4    21.3
2016 10 07    23 41 41.7 -07 48 48   0.04218 1.0387   158.1    21.0    21.5
...
2016 10 13    23 38 02.1 -18 11 54   0.05966 1.0471   145.0    33.2    22.7
...
2016 10 21    23 38 12.4 -24 23 23   0.08527 1.0560   133.5    43.1    23.7
...
2016 11 05    23 47 00.0 -27 33 21   0.1360  1.0652   119.6    54.1    25.1

A. U. Tomatic                (C) Copyright 2016 MPC           M.P.E.C. 2016-T56




More information about the Iaude mailing list